This is the latest recevied weather packets stored in our database for station/object F5ZQC-13. If no packets are shown the sender has not sent any weather packets the latest 10 day(s).
| Time | Temp. | Humidity | Pressure | Rain* | Wind** | Luminosity | Snow |
|---|---|---|---|---|---|---|---|
| 1777583904 | 17.22° C | 53% | 1016.6 hPa | 0 mm | - | - | - |
| 1777583730 | 17.22° C | 58% | 1016.7 hPa | 0 mm | - | - | - |
| 1777583608 | 17.22° C | 55% | 1016.6 hPa | 0 mm | - | - | - |
| 1777583486 | 17.22° C | 56% | 1016.5 hPa | 0 mm | - | - | - |
| 1777583345 | 17.22° C | 54% | 1016.6 hPa | 0 mm | - | - | - |
| 1777583301 | 17.22° C | 54% | 1016.6 hPa | 0 mm | - | - | - |
| 1777583262 | 17.22° C | 57% | 1016.7 hPa | 0 mm | - | - | - |
| 1777583140 | 17.22° C | 56% | 1016.8 hPa | 0 mm | - | - | - |
| 1777583016 | 17.22° C | 57% | 1016.9 hPa | 0 mm | - | - | - |
| 1777582650 | 17.22° C | 56% | 1016.8 hPa | 0 mm | - | - | - |
| 1777582588 | 17.22° C | 52% | 1016.7 hPa | 0 mm | - | - | - |
| 1777582539 | 17.22° C | 57% | 1016.7 hPa | 0 mm | - | - | - |
| 1777582417 | 17.22° C | 57% | 1016.5 hPa | 0 mm | - | - | - |
| 1777582172 | 17.22° C | 56% | 1016.8 hPa | 0 mm | - | - | - |
| 1777582050 | 17.22° C | 55% | 1016.8 hPa | 0 mm | - | - | - |
| 1777581928 | 17.22° C | 55% | 1016.9 hPa | 0 mm | - | - | - |
| 1777581810 | 17.22° C | 57% | 1016.7 hPa | 0 mm | - | - | - |
| 1777581805 | 17.22° C | 58% | 1016.7 hPa | 0 mm | - | - | - |
| 1777581670 | 17.22° C | 57% | 1016.7 hPa | 0 mm | - | - | - |
| 1777581470 | 17.22° C | 56% | 1016.5 hPa | 0 mm | - | - | - |
| 1777581425 | 17.22° C | 56% | 1016.5 hPa | 0 mm | - | - | - |
| 1777581304 | 17.22° C | 55% | 1016.7 hPa | 0 mm | - | - | - |
| 1777581181 | 17.22° C | 55% | 1016.6 hPa | 0 mm | - | - | - |
| 1777581119 | 17.22° C | 57% | 1016.1 hPa | 0 mm | - | - | - |
| 1777581053 | 17.22° C | 56% | 1016.6 hPa | 0 mm | - | - | - |
* Rain since midnight (hover to see other rain measurements)
** Current wind speed in m/s (hover to see current wind gust speed)